Location: Fosso Corella
(43.9167°N, 11.5667°E)
Time: 09:44:54
(UTC+00:00)

GEOS 3 Rocket - Pass Details

Date: 07 June 2020
Orbit: 772 x 847 km, 115.0° (Epoch: 07 July)

Event Time Altitude Azimuth Distance (km) Brightness Sun altitude
Rises 01:48:17 0° 151° (SSE) 3,282 6.5 -14.4°
Reaches altitude 10° 01:50:34 10° 154° (SSE) 2,367 5.8 -14.1°
Maximum altitude 01:55:39 63° 236° (SW) 903 3.6 -13.6°
Drops below altitude 10° 02:00:53 10° 317° (NW) 2,429 6.2 -13.0°
Sets 02:03:15 0° 321° (NW) 3,377 7.0 -12.7°
